Location: Oberkirch
(48.5323°N, 8.0787°E)
Time: 07:03:33
(UTC+00:00)

NOAA 15 - Visible Passes

Search period start: 11 March 2026 00:00
Search period end: 21 March 2026 00:00
Orbit: 795 x 808 km, 98.5° (Epoch: 10 March)

Date Brightness Start Highest point End Pass type
(mag) Time Alt. Az. Time Alt. Az. Time Alt. Az.
11 Mar 7.6 19:25:31 10° WSW 19:28:12 14° W 19:30:54 10° NW visible
12 Mar 7.1 18:57:29 10° SW 19:01:38 23° W 19:05:48 10° NW visible
13 Mar 6.3 18:30:18 10° SSW 18:35:10 37° W 18:40:05 10° NNW visible
14 Mar 5.3 18:03:35 10° S 18:08:48 61° WSW 18:14:04 10° NNW visible
15 Mar 7.6 19:19:53 10° WSW 19:22:57 15° W 19:26:02 10° NW visible
16 Mar 7.0 18:52:04 10° SSW 18:56:23 25° W 19:00:44 10° NW visible
17 Mar 6.1 18:24:58 10° SSW 18:29:56 41° W 18:34:57 10° NNW visible
18 Mar 5.1 17:58:20 10° S 18:03:36 67° WSW 18:08:54 10° NNW visible
19 Mar 7.5 19:14:17 10° SW 19:17:41 17° W 19:21:05 10° NW visible
20 Mar 6.9 18:46:40 10° SSW 18:51:08 28° W 18:55:40 10° NW visible
